Location: The Saddle
(36.8333°N, 80.3417°W)
Time: 16:05:53
(UTC-05:00)

Vanguard 2 - All Passes

Search period start: 30 January 2023 00:00
Search period end: 09 February 2023 00:00
Orbit: 553 x 2930 km, 32.9° (Epoch: 30 January)

Date Brightness Start Highest point End Pass type
(mag) Time Alt. Az. Time Alt. Az. Time Alt. Az.
30 Jan - 00:51:53 10° WSW 01:09:14 77° S 01:25:36 10° E visible
30 Jan - 03:04:10 10° W 03:22:01 71° SSW 03:35:36 10° ESE visible
30 Jan - 05:17:59 10° W 05:32:41 41° SW 05:42:57 10° SSE visible
30 Jan - 07:38:04 10° WSW 07:40:31 11° SW 07:42:47 10° SW daylight
30 Jan - 20:51:36 10° SSW 21:02:53 34° SE 21:17:17 10° E visible
30 Jan - 22:58:31 10° SW 23:13:34 64° SSE 23:31:01 10° E visible
31 Jan - 01:08:55 10° W 01:26:22 78° S 01:42:38 10° E visible
31 Jan - 03:21:21 10° W 03:38:58 65° SSW 03:52:18 10° ESE visible
31 Jan - 05:35:35 10° W 05:49:05 33° SW 05:58:52 10° SSE visible
31 Jan - 19:06:48 10° SE 19:10:51 12° SE 19:15:21 10° ESE visible
31 Jan - 21:07:26 10° SSW 21:19:18 41° SE 21:34:54 10° E visible
31 Jan - 23:15:13 10° WSW 23:30:31 70° SSE 23:48:10 10° E visible
01 Feb - 01:25:59 10° W 01:43:31 77° S 01:59:37 10° ESE visible
01 Feb - 03:38:34 10° W 03:55:47 58° SSW 04:08:52 10° SE visible
01 Feb - 05:53:32 10° W 06:05:22 26° SW 06:14:20 10° S visible
01 Feb - 19:19:51 10° SSE 19:26:59 18° SE 19:35:48 10° E visible
01 Feb - 21:23:32 10° SW 21:35:51 49° SSE 21:52:19 10° E visible
01 Feb - 23:32:02 10° WSW 23:47:33 74° S 00:05:17 10° E visible
02 Feb - 01:43:05 10° W 02:00:37 75° S 02:16:32 10° ESE visible
02 Feb - 03:55:50 10° W 04:12:29 50° SSW 04:25:14 10° SE visible
02 Feb - 06:12:07 10° W 06:21:33 19° SW 06:29:11 10° S visible
02 Feb - 19:34:36 10° S 19:43:09 25° SE 19:54:27 10° E visible
02 Feb - 21:39:53 10° SW 21:52:31 57° SSE 22:09:35 10° E visible
02 Feb - 23:48:56 10° WSW 00:04:39 77° S 00:22:23 10° E visible
03 Feb - 02:00:10 10° W 02:17:40 70° SSW 02:33:21 10° ESE visible
03 Feb - 04:13:13 10° W 04:29:02 42° SW 04:41:22 10° SSE visible
03 Feb - 06:32:13 10° WSW 06:37:41 13° SW 06:42:33 10° SSW visible
03 Feb - 19:50:04 10° SSW 19:59:24 32° SE 20:12:26 10° E visible
03 Feb - 21:56:26 10° WSW 22:09:19 64° SSE 22:26:49 10° E visible
04 Feb - 00:05:54 10° W 00:21:47 78° S 00:39:27 10° E visible
04 Feb - 02:17:17 10° W 02:34:37 64° SSW 02:50:03 10° SE visible
04 Feb - 04:30:48 10° W 04:45:28 34° SW 04:57:11 10° SSE visible
04 Feb - 20:05:56 10° SSW 20:15:46 40° SE 20:30:02 10° E visible
04 Feb - 22:13:07 10° WSW 22:26:13 70° SSE 22:43:58 10° E visible
05 Feb - 00:22:54 10° W 00:38:54 77° S 00:56:27 10° ESE visible
05 Feb - 02:34:26 10° W 02:51:27 57° SSW 03:06:34 10° SE visible
05 Feb - 04:48:45 10° W 05:01:48 27° SW 05:12:34 10° S visible
05 Feb - 18:18:57 10° SSE 18:24:11 16° SE 18:30:41 10° E visible
05 Feb - 20:22:05 10° SW 20:32:15 48° SSE 20:47:26 10° E visible
05 Feb - 22:29:54 10° WSW 22:43:13 75° S 23:01:07 10° E visible
06 Feb - 00:39:54 10° W 00:55:59 74° S 01:13:25 10° ESE visible
06 Feb - 02:51:39 10° W 03:08:11 50° SSW 03:22:53 10° SE visible
06 Feb - 05:07:19 10° W 05:18:03 20° SW 05:27:17 10° S visible
06 Feb - 18:33:38 10° S 18:40:19 22° SE 18:49:25 10° E visible
06 Feb - 20:38:28 10° SW 20:48:52 57° SSE 21:04:43 10° E visible
06 Feb - 22:46:46 10° WSW 23:00:16 77° S 23:18:16 10° E visible
07 Feb - 00:56:56 10° W 01:13:01 69° SSW 01:30:13 10° ESE visible
07 Feb - 03:09:00 10° W 03:24:47 42° SW 03:38:55 10° SSE visible
07 Feb - 05:27:15 10° WSW 05:34:17 14° SW 05:40:41 10° SSW visible
07 Feb - 18:49:06 10° SSW 18:56:31 30° SE 19:07:23 10° E visible
07 Feb - 20:55:01 10° WSW 21:05:37 64° SSE 21:21:56 10° E visible
07 Feb - 23:03:39 10° W 23:17:21 77° S 23:35:22 10° E visible
08 Feb - 01:13:58 10° W 01:29:57 63° SSW 01:46:53 10° SE visible
08 Feb - 03:26:34 10° W 03:41:17 34° SW 03:54:37 10° SSE visible
08 Feb - 19:04:59 10° SSW 19:12:51 38° SE 19:24:58 10° E visible
08 Feb - 21:11:41 10° WSW 21:22:29 70° SSE 21:39:07 10° E visible
08 Feb - 23:20:35 10° W 23:34:25 75° S 23:52:25 10° ESE visible
